Weather History for KFOA - October, 2011

Change the Weather History Date:

Wednesday, October 26, 2011

  Actual Average (KEVV) Record (KEVV)
Temperature  
Mean Temperature 60 °F 54 °F  
Max Temperature 69 °F 66 °F 87 °F (1940)
Min Temperature 51 °F 43 °F 23 °F (1962)
Degree Days  
Heating Degree Days 5 11  
Month to date heating degree days 199  
Since 1 July heating degree days 246  
Cooling Degree Days 0 0  
Month to date cooling degree days 28  
Year to date cooling degree days 1394  
Growing Degree Days 10 (Base 50)    
Moisture  
Dew Point 49 °F    
Average Humidity 61    
Maximum Humidity 94    
Minimum Humidity 38    
Precipitation  
Precipitation 0.12 in 0.11 in 1.02 in (1932)
Month to date precipitation 2.69  
Year to date precipitation 36.66  
Snow  
Snow 0.00 in 0.00 in T in (1957)
Month to date snowfall 0.1  
Since 1 July snowfall 0.1  
Since 1 September snowfall 0.1  
Snow Depth -    
Sea Level Pressure  
Sea Level Pressure 29.87 in    
Wind  
Wind Speed 12 mph (WSW)    
Max Wind Speed 18 mph    
Max Gust Speed 24 mph    
Visibility 8 miles    
Events Rain    
T = Trace of Precipitation, MM = Missing Value Source: NWS Daily Summary

Daily Weather History Graph

Daily Weather History Graph

Search for Another Location

Airport or City:

Trip Planner

Search our weather history database for the weather conditions in past years. The results will help you decide how hot, cold, wet, or windy it might be!

Date:

Astronomy

Oct. 26, 2011 Rise Set
Actual Time 7:13 AM CDT 6:01 PM CDT
Civil Twilight 6:46 AM CDT 6:28 PM CDT
Nautical Twilight 6:15 AM CDT 6:59 PM CDT
Astronomical Twilight 5:44 AM CDT 7:30 PM CDT
Moon 7:00 AM CDT (10/26) 5:44 PM CDT (10/26)
Length of Visible Light 11h 41m
Length of Day
10h 47m
Waning Crescent, 0% of the Moon is Illuminated
Oct 26
Waning Crescent
Oct 26
New
Nov 2
First Quarter
Nov 10
Full
Nov 18
Last Quarter

Hourly Weather History & Observations

Time (CDT) Temp. Dew Point Humidity Pressure Visibility Wind Dir Wind Speed Gust Speed Precip Events Conditions
12:15 AM 68.0 °F 42.8 °F 40% 29.88 in 10.0 mi South 12.7 mph - N/A   Clear
12:35 AM 69.8 °F 42.8 °F 38% 29.88 in 10.0 mi South 11.5 mph - N/A   Clear
12:55 AM 69.8 °F 42.8 °F 38% 29.87 in 10.0 mi South 16.1 mph 21.9 mph N/A   Scattered Clouds
1:15 AM 69.8 °F 42.8 °F 38% 29.87 in 10.0 mi South 16.1 mph - N/A   Scattered Clouds
1:35 AM 69.8 °F 42.8 °F 38% 29.87 in 10.0 mi South 13.8 mph 23.0 mph N/A   Scattered Clouds
1:55 AM 68.0 °F 42.8 °F 40% 29.87 in 10.0 mi South 18.4 mph 23.0 mph N/A   Scattered Clouds
2:15 AM 69.8 °F 42.8 °F 38% 29.87 in 10.0 mi South 16.1 mph 23.0 mph N/A   Scattered Clouds
2:35 AM 69.8 °F 42.8 °F 38% 29.85 in 10.0 mi South 16.1 mph 21.9 mph N/A   Clear
2:55 AM 68.0 °F 42.8 °F 40% 29.85 in 10.0 mi South 13.8 mph 18.4 mph N/A   Clear
3:15 AM 68.0 °F 42.8 °F 40% 29.84 in 10.0 mi SSW 12.7 mph 21.9 mph N/A   Clear
3:35 AM 68.0 °F 42.8 °F 40% 29.83 in 10.0 mi South 15.0 mph 21.9 mph N/A   Clear
3:55 AM 68.0 °F 42.8 °F 40% 29.83 in 10.0 mi SSW 15.0 mph 24.2 mph N/A   Clear
4:15 AM 68.0 °F 44.6 °F 43% 29.83 in 10.0 mi SSW 15.0 mph 23.0 mph N/A   Clear
4:35 AM 68.0 °F 44.6 °F 43% 29.83 in 10.0 mi SSW 13.8 mph - N/A   Clear
4:55 AM 68.0 °F 44.6 °F 43% 29.83 in 10.0 mi SSW 12.7 mph - N/A   Clear
5:35 AM 66.2 °F 44.6 °F 46% 29.83 in 10.0 mi SSW 12.7 mph - N/A   Clear
5:55 AM 66.2 °F 46.4 °F 49% 29.83 in 10.0 mi SSW 11.5 mph - N/A   Clear
6:15 AM 64.4 °F 46.4 °F 52% 29.84 in 10.0 mi SSW 11.5 mph - N/A   Clear
6:35 AM 64.4 °F 46.4 °F 52% 29.84 in 10.0 mi SSW 11.5 mph - N/A   Clear
6:55 AM 64.4 °F 46.4 °F 52% 29.84 in 10.0 mi SSW 11.5 mph - N/A   Scattered Clouds
7:15 AM 64.4 °F 48.2 °F 56% 29.84 in 10.0 mi SSW 9.2 mph - N/A   Scattered Clouds
7:35 AM 62.6 °F 50.0 °F 63% 29.85 in 10.0 mi SSW 9.2 mph - N/A   Clear
7:55 AM 62.6 °F 50.0 °F 63% 29.85 in 10.0 mi SSW 8.1 mph - N/A   Clear
8:15 AM 64.4 °F 50.0 °F 59% 29.85 in 10.0 mi South 8.1 mph - N/A   Clear
8:35 AM 64.4 °F 50.0 °F 59% 29.85 in 10.0 mi South 9.2 mph - N/A   Clear
8:55 AM 66.2 °F 51.8 °F 60% 29.87 in 10.0 mi SSW 10.4 mph - N/A   Clear
9:15 AM 66.2 °F 51.8 °F 60% 29.87 in 10.0 mi SSW 9.2 mph 16.1 mph N/A   Clear
9:35 AM 68.0 °F 51.8 °F 56% 29.87 in 10.0 mi SSW 9.2 mph - N/A   Clear
9:55 AM 68.0 °F 51.8 °F 56% 29.87 in 10.0 mi SSW 10.4 mph - N/A   Clear
10:15 AM 69.8 °F 51.8 °F 53% 29.87 in 10.0 mi SSW 11.5 mph - N/A   Clear
10:35 AM 68.0 °F 51.8 °F 56% 29.88 in 10.0 mi SW 12.7 mph - N/A   Clear
10:55 AM 69.8 °F 51.8 °F 53% 29.88 in 10.0 mi SW 11.5 mph - N/A   Clear
11:15 AM 69.8 °F 51.8 °F 53% 29.87 in 10.0 mi SW 9.2 mph - N/A   Clear
11:35 AM 69.8 °F 51.8 °F 53% 29.87 in 10.0 mi West 11.5 mph 16.1 mph N/A   Clear
11:55 AM 68.0 °F 50.0 °F 52% 29.88 in 10.0 mi WNW 10.4 mph 16.1 mph N/A   Scattered Clouds
12:15 PM 68.0 °F 51.8 °F 56% 29.87 in 10.0 mi West 10.4 mph - N/A   Scattered Clouds
12:35 PM 66.2 °F 51.8 °F 60% 29.88 in 10.0 mi West 11.5 mph - N/A   Scattered Clouds
12:55 PM 64.4 °F 51.8 °F 64% 29.90 in 10.0 mi West 13.8 mph 18.4 mph N/A   Overcast
1:15 PM 62.6 °F 51.8 °F 68% 29.89 in 7.0 mi WNW 17.3 mph 21.9 mph N/A   Overcast
1:35 PM 59.0 °F 51.8 °F 77% 29.88 in 4.0 mi WNW 10.4 mph - N/A Rain Light Rain
1:55 PM 59.0 °F 51.8 °F 77% 29.88 in 3.0 mi WNW 10.4 mph - N/A Rain Light Rain
2:15 PM 59.0 °F 51.8 °F 77% 29.87 in 5.0 mi NW 10.4 mph - N/A   Haze
2:35 PM 59.0 °F 51.8 °F 77% 29.87 in 5.0 mi WNW 10.4 mph - N/A   Haze
2:55 PM 59.0 °F 51.8 °F 77% 29.88 in 5.0 mi WNW 9.2 mph - N/A   Haze
3:15 PM 59.0 °F 50.0 °F 72% 29.89 in 5.0 mi West 9.2 mph - N/A   Haze
3:35 PM 57.2 °F 50.0 °F 77% 29.88 in 5.0 mi NW 8.1 mph - N/A   Haze
3:55 PM 57.2 °F 50.0 °F 77% 29.87 in 5.0 mi NW 8.1 mph - N/A   Haze
4:15 PM 55.4 °F 50.0 °F 82% 29.88 in 4.0 mi WNW 8.1 mph - N/A   Haze
4:35 PM 55.4 °F 50.0 °F 82% 29.87 in 4.0 mi NW 6.9 mph - N/A   Light Drizzle
4:55 PM 55.4 °F 51.8 °F 88% 29.88 in 2.5 mi WNW 6.9 mph - N/A Rain Rain
5:15 PM 55.4 °F 51.8 °F 88% 29.89 in 2.5 mi WNW 6.9 mph - 0.01 in Rain Light Rain
5:35 PM 53.6 °F 51.8 °F 94% 29.89 in 2.0 mi WNW 8.1 mph - 0.02 in Rain Rain
5:55 PM 53.6 °F 51.8 °F 94% 29.90 in 3.0 mi WNW 5.8 mph - 0.03 in   Heavy Drizzle
6:15 PM 53.6 °F 50.0 °F 88% 29.90 in 3.0 mi WNW 9.2 mph - 0.08 in Rain Rain
6:35 PM 51.8 °F 50.0 °F 94% 29.91 in 5.0 mi NW 9.2 mph - N/A Rain Light Rain
6:55 PM 51.8 °F 50.0 °F 94% 29.90 in 5.0 mi NW 11.5 mph - N/A Rain Rain
7:15 PM 51.8 °F 50.0 °F 94% 29.92 in 5.0 mi NW 11.5 mph - 0.01 in   Light Drizzle
7:35 PM 51.8 °F 50.0 °F 94% 29.92 in 5.0 mi WNW 10.4 mph - 0.01 in   Drizzle
7:55 PM 51.8 °F 48.2 °F 88% 29.92 in 4.0 mi NW 6.9 mph - 0.03 in Rain Light Rain
8:15 PM 51.8 °F 48.2 °F 88% 29.92 in 5.0 mi NW 8.1 mph - 0.01 in Rain Light Rain
8:35 PM 51.8 °F 48.2 °F 88% 29.91 in 4.0 mi NW 9.2 mph - 0.05 in Rain Rain
8:55 PM 51.8 °F 48.2 °F 88% 29.92 in 5.0 mi NNW 8.1 mph - 0.06 in Rain Rain
9:15 PM 51.8 °F 46.4 °F 82% 29.92 in 5.0 mi NNW 9.2 mph - 0.05 in Rain Heavy Rain
9:35 PM 50.0 °F 46.4 °F 87% 29.93 in 5.0 mi WNW 6.9 mph 10.4 mph 0.13 in Rain Rain
9:55 PM 50.0 °F 46.4 °F 87% 29.91 in 7.0 mi NNW 9.2 mph - 0.14 in Rain Rain
10:15 PM 50.0 °F 46.4 °F 87% 29.91 in 5.0 mi NNW 8.1 mph - 0.02 in Rain Rain
10:35 PM 50.0 °F 46.4 °F 87% 29.90 in 5.0 mi NNW 10.4 mph - 0.04 in Rain Rain
10:55 PM 50.0 °F 46.4 °F 87% 29.92 in 5.0 mi NW 6.9 mph - 0.05 in Rain Rain
11:15 PM 50.0 °F 46.4 °F 87% 29.91 in 5.0 mi NNW 8.1 mph - N/A   Overcast
11:35 PM 50.0 °F 46.4 °F 87% 29.91 in 5.0 mi NW 8.1 mph - N/A   Drizzle
11:55 PM 50.0 °F 46.4 °F 87% 29.92 in 5.0 mi NW 10.4 mph - N/A   Light Drizzle